This is the latest recevied weather packets stored in our database for station/object W5ITZ. If no packets are shown the sender has not sent any weather packets the latest 10 day(s).
| Time | Temp. | Humidity | Pressure | Rain* | Wind** | Luminosity | Snow |
|---|---|---|---|---|---|---|---|
| 1787624977 | 27.22° C | 85% | 1016.1 hPa | 0 mm | - | 0 W/m² | - |
| 1787624672 | 27.78° C | 85% | 1016.2 hPa | 0 mm | - | 0 W/m² | - |
| 1787624368 | 27.78° C | 84% | 1016.3 hPa | 0 mm | - | 0 W/m² | - |
| 1787624064 | 27.78° C | 84% | 1016.2 hPa | 0 mm | - | 0 W/m² | - |
| 1787623763 | 27.78° C | 83% | 1016.1 hPa | 0 mm | - | 0 W/m² | - |
| 1787623462 | 27.78° C | 82% | 1016.1 hPa | 0 mm | - | 0 W/m² | - |
| 1787623161 | 28.33° C | 82% | 1016.1 hPa | 0 mm | - | 0 W/m² | - |
| 1787622857 | 28.33° C | 81% | 1016.1 hPa | 0 mm | - | 0 W/m² | - |
| 1787622553 | 28.33° C | 81% | 1015.8 hPa | 0 mm | - | 0 W/m² | - |
| 1787622249 | 28.33° C | 80% | 1015.7 hPa | 0 mm | - | 0 W/m² | - |
| 1787621949 | 28.33° C | 79% | 1015.7 hPa | 0 mm | - | 0 W/m² | - |
| 1787621644 | 28.33° C | 78% | 1015.4 hPa | 0 mm | - | 0 W/m² | - |
| 1787621339 | 28.89° C | 77% | 1015.2 hPa | 0 mm | - | 0 W/m² | - |
| 1787621035 | 28.89° C | 76% | 1015.2 hPa | 0 mm | - | 0 W/m² | - |
| 1787620731 | 28.89° C | 75% | 1015.1 hPa | 0 mm | - | 0 W/m² | - |
| 1787620426 | 28.89° C | 74% | 1015.5 hPa | 0 mm | - | 0 W/m² | - |
| 1787620121 | 29.44° C | 73% | 1015.2 hPa | 0 mm | - | 1 W/m² | - |
| 1787619816 | 29.44° C | 72% | 1015.1 hPa | 0 mm | - | 2 W/m² | - |
| 1787619511 | 29.44° C | 71% | 1014.8 hPa | 0 mm | - | 4 W/m² | - |
| 1787619206 | 30° C | 70% | 1014.8 hPa | 0 mm | - | 7 W/m² | - |
| 1787618905 | 30° C | 69% | 1014.4 hPa | 0 mm | - | 11 W/m² | - |
| 1787618602 | 30.56° C | 68% | 1014.7 hPa | 0 mm | - | 15 W/m² | - |
| 1787618299 | 30.56° C | 66% | 1014.5 hPa | 0 mm | - | 20 W/m² | - |
| 1787617995 | 30.56° C | 65% | 1014.6 hPa | 0 mm | - | 25 W/m² | - |
| 1787617689 | 31.11° C | 64% | 1014.7 hPa | 0 mm | - | 32 W/m² | - |
* Rain latest hour (hover to see other rain measurements)
** Current wind speed in m/s (hover to see current wind gust speed)